Deer Park, WA

2:24 AM PDT on June 25, 2017 (GMT -0700)
Deer Park

Weather History for KDEW - January, 2014

Change the Weather History Date:

Thursday, January 9, 2014

  Actual Average Record
Temperature  
Mean Temperature 33 °F 26 °F  
Max Temperature 35 °F 32 °F 46 °F (2007)
Min Temperature 30 °F 20 °F 7 °F (2011)
Degree Days  
Heating Degree Days 32 39  
Month to date heating degree days 336 354  
Since 1 July heating degree days 3547 3581  
Cooling Degree Days 0 0  
Month to date cooling degree days 0 0  
Year to date cooling degree days 0 0  
Moisture  
Dew Point 30 °F    
Average Humidity 88    
Maximum Humidity 100    
Minimum Humidity 75    
Precipitation  
Precipitation 0.15 in 0.10 in 1.33 in (2006)
Month to date precipitation 0.76 0.93  
Year to date precipitation 0.76 0.93  
Sea Level Pressure  
Sea Level Pressure 29.80 in    
Wind  
Wind Speed 9 mph (South)    
Max Wind Speed 16 mph    
Max Gust Speed 19 mph    
Visibility 6 miles    
Events Snow    
T = Trace of Precipitation, MM = Missing Value Source: NWS Daily Summary

Daily Weather History Graph

Daily Weather History Graph

Search for Another Location

Airport or City:

Trip Planner

Search our weather history database for the weather conditions in past years. The results will help you decide how hot, cold, wet, or windy it might be!

Date:

Astronomy

Jan. 09, 2014 Rise Set
Actual Time 7:37 AM PST 4:16 PM PST
Civil Twilight 7:02 AM PST 4:52 PM PST
Nautical Twilight 6:23 AM PST 5:31 PM PST
Astronomical Twilight 5:45 AM PST 6:08 PM PST
Moon 11:55 AM PST (1/9) 1:38 AM PST (1/9)
Length of Visible Light 9h 49m
Length of Day
8h 38m
Waxing Gibbous, 67% of the Moon is Illuminated
Jan 9
Waxing Gibbous
Jan 15
Full
Jan 23
Last Quarter
Jan 30
New
Feb 6
First Quarter

Hourly Weather History & Observations

Time (PST) Temp. Windchill Dew Point Humidity Pressure Visibility Wind Dir Wind Speed Gust Speed Precip Events Conditions
12:27 AM 35.1 °F 27.4 °F 33.1 °F 92% 29.69 in 2.5 mi SSW 10.4 mph - 0.00 in   Overcast
12:48 AM 33.8 °F 25.3 °F 33.8 °F 100% 29.70 in 5.0 mi SSW 11.5 mph - 0.00 in   Overcast
12:53 AM 34.0 °F 25.5 °F 33.1 °F 96% 29.75 in 6.0 mi SSW 11.5 mph - 0.00 in   Overcast
1:53 AM 33.1 °F 25.5 °F 32.0 °F 96% 29.75 in 8.0 mi South 9.2 mph - 0.01 in   Overcast
2:02 AM 33.1 °F 24.4 °F 30.9 °F 92% 29.69 in 7.0 mi South 11.5 mph - N/A   Overcast
2:43 AM 33.1 °F 24.9 °F 30.9 °F 92% 29.71 in 4.0 mi South 10.4 mph - N/A   Overcast
2:53 AM 33.1 °F 24.4 °F 30.9 °F 92% 29.77 in 7.0 mi SSW 11.5 mph - N/A   Overcast
3:23 AM 32.0 °F 22.5 °F 30.9 °F 96% 29.72 in 8.0 mi South 12.7 mph - N/A   Overcast
3:53 AM 32.0 °F 21.6 °F 30.0 °F 92% 29.78 in 7.0 mi SSW 15.0 mph - N/A   Overcast
4:34 AM 32.0 °F 22.1 °F 30.0 °F 92% 29.74 in 5.0 mi South 13.8 mph - N/A   Overcast
4:53 AM 32.0 °F 23.0 °F 30.0 °F 92% 29.80 in 7.0 mi South 11.5 mph - N/A   Overcast
5:53 AM 32.0 °F 23.0 °F 28.9 °F 88% 29.81 in 9.0 mi SSW 11.5 mph - N/A   Overcast
6:09 AM 30.9 °F 22.8 °F 28.9 °F 92% 29.76 in 10.0 mi SSW 9.2 mph - N/A   Overcast
6:38 AM 30.9 °F 23.5 °F 28.9 °F 92% 29.78 in 9.0 mi South 8.1 mph - N/A   Overcast
6:53 AM 30.9 °F 22.2 °F 28.9 °F 92% 29.84 in 9.0 mi South 10.4 mph - N/A   Overcast
7:05 AM 30.9 °F 21.7 °F 28.9 °F 92% 29.79 in 10.0 mi South 11.5 mph - N/A   Overcast
7:53 AM 30.0 °F 21.1 °F 28.0 °F 92% 29.86 in 10.0 mi SSW 10.4 mph - N/A   Overcast
8:43 AM 30.0 °F 20.5 °F 28.0 °F 92% 29.84 in 10.0 mi South 11.5 mph - N/A   Overcast
8:53 AM 30.0 °F 21.1 °F 28.0 °F 92% 29.91 in 10.0 mi South 10.4 mph - N/A   Overcast
9:18 AM 30.9 °F 21.7 °F 27.0 °F 85% 29.86 in 10.0 mi SSW 11.5 mph - N/A   Overcast
9:53 AM 30.0 °F 22.4 °F 27.0 °F 88% 29.93 in 10.0 mi SSW 8.1 mph - N/A   Overcast
10:53 AM 32.0 °F 24.2 °F 27.0 °F 82% 29.93 in 10.0 mi South 9.2 mph - N/A   Overcast
11:32 AM 33.1 °F 23.9 °F 27.0 °F 78% 29.88 in 10.0 mi South 12.7 mph - N/A   Overcast
11:53 AM 33.1 °F 24.4 °F 27.0 °F 78% 29.93 in 10.0 mi South 11.5 mph - N/A   Mostly Cloudy
12:33 PM 34.0 °F 25.0 °F 28.0 °F 79% 29.87 in 10.0 mi South 12.7 mph - N/A   Scattered Clouds
12:48 PM 33.8 °F 27.0 °F 28.4 °F 81% 29.87 in 10.0 mi South 8.1 mph - N/A   Mostly Cloudy
12:53 PM 34.0 °F 26.6 °F 28.9 °F 82% 29.93 in 10.0 mi South 9.2 mph - N/A   Mostly Cloudy
1:33 PM 34.0 °F 25.5 °F 28.9 °F 82% 29.87 in 8.0 mi South 11.5 mph - N/A   Scattered Clouds
1:53 PM 34.0 °F 26.0 °F 28.9 °F 82% 29.93 in 10.0 mi South 10.4 mph - N/A   Scattered Clouds
2:12 PM 35.1 °F - 30.0 °F 82% 29.87 in 10.0 mi North - - N/A   Mostly Cloudy
3:53 PM 33.1 °F 25.5 °F 28.0 °F 82% 29.92 in 10.0 mi SSW 9.2 mph - N/A   Partly Cloudy
4:45 PM 33.1 °F 27.7 °F 28.0 °F 82% 29.86 in 10.0 mi SSW 5.8 mph - N/A   Overcast
4:53 PM 33.1 °F 26.9 °F 28.0 °F 82% 29.91 in 10.0 mi SSW 6.9 mph - 0.00 in Snow Light Snow
5:22 PM 33.1 °F 26.1 °F 28.9 °F 85% 29.84 in 2.5 mi South 8.1 mph - 0.00 in Snow Light Snow
5:53 PM 32.0 °F 25.6 °F 30.0 °F 92% 29.88 in 2.0 mi South 6.9 mph - 0.00 in Snow Light Snow
6:02 PM 32.0 °F 25.6 °F 30.0 °F 92% 29.81 in 1.2 mi SSE 6.9 mph - 0.01 in Snow Light Snow
6:06 PM 32.0 °F 25.6 °F 30.0 °F 92% 29.81 in 1.0 mi SSE 6.9 mph - 0.01 in Snow Light Snow
6:16 PM 32.0 °F 25.6 °F 30.0 °F 92% 29.80 in 1.2 mi South 6.9 mph - 0.01 in Snow Light Snow
6:53 PM 32.0 °F 26.4 °F 30.9 °F 96% 29.85 in 1.5 mi South 5.8 mph - 0.03 in Snow Light Snow
7:01 PM 32.0 °F 27.5 °F 30.9 °F 96% 29.79 in 1.5 mi South 4.6 mph - 0.00 in Snow Light Snow
7:14 PM 32.0 °F 24.8 °F 30.9 °F 96% 29.79 in 0.8 mi South 8.1 mph - 0.01 in Snow Light Snow
7:26 PM 32.0 °F 25.6 °F 30.9 °F 96% 29.78 in 1.0 mi SSE 6.9 mph - 0.02 in Snow Light Snow
7:53 PM 32.0 °F 26.4 °F 30.9 °F 96% 29.83 in 1.2 mi SSE 5.8 mph - 0.04 in Snow Light Snow
8:11 PM 32.0 °F 26.4 °F 30.9 °F 96% 29.76 in 1.0 mi SSE 5.8 mph - 0.01 in Snow Light Snow
8:53 PM 32.0 °F 24.2 °F 30.9 °F 96% 29.79 in 1.2 mi SSE 9.2 mph - 0.04 in Snow Light Snow
9:45 PM 32.0 °F 24.8 °F 30.9 °F 96% 29.70 in 2.0 mi SSE 8.1 mph - 0.02 in Snow Light Snow
9:53 PM 32.0 °F 24.8 °F 30.9 °F 96% 29.75 in 2.0 mi SSE 8.1 mph - 0.02 in Snow Light Snow
10:04 PM 32.0 °F 23.6 °F 30.9 °F 96% 29.69 in 1.5 mi South 10.4 mph - 0.00 in Snow Light Snow
10:33 PM 32.0 °F 24.2 °F 30.9 °F 96% 29.68 in 2.0 mi South 9.2 mph - 0.01 in Snow Light Snow
10:46 PM 33.1 °F 24.9 °F 30.9 °F 92% 29.68 in 4.0 mi South 10.4 mph - 0.01 in Snow Light Snow
10:53 PM 33.1 °F 25.5 °F 30.9 °F 92% 29.73 in 8.0 mi South 9.2 mph - 0.01 in   Overcast
11:00 PM 33.1 °F 26.9 °F 30.9 °F 92% 29.68 in 10.0 mi South 6.9 mph - N/A   Overcast
11:14 PM 32.0 °F 26.4 °F 30.9 °F 96% 29.67 in 9.0 mi SE 5.8 mph - N/A   Overcast
11:24 PM 32.0 °F 27.5 °F 32.0 °F 100% 29.66 in 8.0 mi ESE 4.6 mph - N/A   Overcast
11:53 PM 33.1 °F 27.7 °F 32.0 °F 96% 29.72 in 10.0 mi ESE 5.8 mph - N/A   Overcast